This is the latest recevied weather packets stored in our database for station/object K8RLH. If no packets are shown the sender has not sent any weather packets the latest 10 day(s).
| Time | Temp. | Humidity | Pressure | Rain* | Wind** | Luminosity | Snow |
|---|---|---|---|---|---|---|---|
| 1778162720 | 18.33° C | 98% | 1012.3 hPa | 0 mm | - | 86 W/m² | - |
| 1778162418 | 18.33° C | 99% | 1012.2 hPa | 0 mm | - | 115 W/m² | - |
| 1778162115 | 18.33° C | 99% | 1012.3 hPa | 0 mm | - | 297 W/m² | - |
| 1778161812 | 18.33° C | 99% | 1012.2 hPa | 0 mm | - | 90 W/m² | - |
| 1778161509 | 18.33° C | 99% | 1012.2 hPa | 0 mm | - | 114 W/m² | - |
| 1778161204 | 17.78° C | 99% | 1012 hPa | 1.27 mm | - | 142 W/m² | - |
| 1778160901 | 17.78° C | 99% | 1012.3 hPa | 3.05 mm | - | 65 W/m² | - |
| 1778160599 | 17.78° C | 99% | 1012.3 hPa | 4.83 mm | - | 39 W/m² | - |
| 1778160295 | 17.78° C | 99% | 1012.4 hPa | 6.1 mm | - | 19 W/m² | - |
| 1778159991 | 17.78° C | 99% | 1013.1 hPa | 4.83 mm | - | 21 W/m² | - |
| 1778159689 | 17.78° C | 99% | 1013.5 hPa | 4.83 mm | - | 26 W/m² | - |
| 1778159385 | 17.78° C | 99% | 1013.2 hPa | 4.32 mm | - | 20 W/m² | - |
| 1778159082 | 17.78° C | 99% | 1012.9 hPa | 1.27 mm | - | 18 W/m² | - |
| 1778158781 | 17.78° C | 99% | 1013 hPa | 0 mm | - | 11 W/m² | - |
| 1778158479 | 17.78° C | 99% | 1013.2 hPa | 1.78 mm | - | 13 W/m² | - |
| 1778158176 | 17.78° C | 99% | 1013.4 hPa | 6.1 mm | - | 21 W/m² | - |
| 1778157872 | 17.78° C | 99% | 1013.1 hPa | 4.32 mm | - | 45 W/m² | - |
| 1778157571 | 17.78° C | 99% | 1013.1 hPa | 0 mm | - | 27 W/m² | - |
| 1778157268 | 17.78° C | 99% | 1013.1 hPa | 1.78 mm | - | 20 W/m² | - |
| 1778156964 | 17.78° C | 99% | 1011.6 hPa | 1.78 mm | - | 42 W/m² | - |
| 1778156659 | 17.78° C | 99% | 1011.6 hPa | 0 mm | - | 44 W/m² | - |
| 1778156356 | 17.78° C | 99% | 1011.7 hPa | 0 mm | - | 20 W/m² | - |
| 1778156051 | 17.78° C | 99% | 1012 hPa | 1.27 mm | - | 20 W/m² | - |
| 1778155748 | 17.78° C | 99% | 1012.2 hPa | 3.05 mm | - | 21 W/m² | - |
| 1778155444 | 17.78° C | 99% | 1012 hPa | 4.83 mm | - | 21 W/m² | - |
* Rain latest hour (hover to see other rain measurements)
** Current wind speed in m/s (hover to see current wind gust speed)